Meteo pe oră la Dziadowek

Astăzi, 3 Martie, Miercuri

Timp Temperatura Precipitaţii Vânt Presiune Umiditate
00:00 -1°C° 0 mm 3 m/s 750 mmHg 87%
01:00 -2°C° 0 mm 3 m/s 750 mmHg 86%
02:00 -2°C° 0 mm 2 m/s 750 mmHg 85%
03:00 -2°C° 0 mm 2 m/s 750 mmHg 84%
04:00 -2°C° 0 mm 2 m/s 749 mmHg 82%
05:00 -2°C° 0 mm 2 m/s 749 mmHg 81%
06:00 -2°C° 0 mm 2 m/s 749 mmHg 80%
07:00 -2°C° 0 mm 2 m/s 749 mmHg 79%
08:00 -2°C° 0 mm 2 m/s 749 mmHg 78%
09:00 +1°C° 0 mm 2 m/s 749 mmHg 70%
10:00 +3°C° 0 mm 2 m/s 748 mmHg 63%
11:00 +3°C° 0 mm 3 m/s 748 mmHg 56%
12:00 +4°C° 0 mm 3 m/s 748 mmHg 54%
13:00 +5°C° 0 mm 4 m/s 747 mmHg 53%
14:00 +5°C° 0 mm 4 m/s 747 mmHg 53%
15:00 +5°C° 0 mm 4 m/s 746 mmHg 57%
16:00 +4°C° 0 mm 4 m/s 745 mmHg 62%
17:00 +4°C° 0 mm 4 m/s 744 mmHg 66%
18:00 +3°C° 0 mm 4 m/s 743 mmHg 73%
19:00 +1°C° 0 mm 4 m/s 742 mmHg 80%
20:00 0°C° 0 mm 4 m/s 742 mmHg 88%
21:00 0°C° 0 mm 4 m/s 741 mmHg 88%
22:00 -1°C° 0 mm 4 m/s 740 mmHg 89%
23:00 -1°C° 0 mm 4 m/s 739 mmHg 89%

Mâine, 4 Martie, Joi

Timp Temperatura Precipitaţii Vânt Presiune Umiditate
00:00 0°C° 0 mm 3 m/s 739 mmHg 90%
01:00 0°C° 0 mm 3 m/s 738 mmHg 90%
02:00 -1°C° 0 mm 3 m/s 737 mmHg 91%
03:00 -1°C° 0 mm 3 m/s 737 mmHg 92%
04:00 -1°C° 0 mm 3 m/s 736 mmHg 93%
05:00 -1°C° 0 mm 3 m/s 735 mmHg 93%
06:00 -1°C° 0 mm 3 m/s 735 mmHg 94%
07:00 -2°C° 0 mm 4 m/s 734 mmHg 95%
08:00 -2°C° 0 mm 4 m/s 734 mmHg 96%
09:00 -1°C° 0 mm 4 m/s 734 mmHg 94%
10:00 -1°C° 0 mm 4 m/s 734 mmHg 92%
11:00 0°C° 0 mm 4 m/s 734 mmHg 90%
12:00 0°C° 0 mm 4 m/s 734 mmHg 89%
13:00 0°C° 0 mm 4 m/s 734 mmHg 87%
14:00 0°C° 0 mm 4 m/s 734 mmHg 86%
15:00 0°C° 0.2 mm 4 m/s 734 mmHg 89%
16:00 0°C° 0.2 mm 3 m/s 734 mmHg 92%
17:00 0°C° 0.2 mm 3 m/s 734 mmHg 95%
18:00 -1°C° 0.3 mm 3 m/s 734 mmHg 94%
19:00 -2°C° 0.3 mm 3 m/s 734 mmHg 93%
20:00 -4°C° 0.3 mm 4 m/s 734 mmHg 92%
21:00 -4°C° 0 mm 3 m/s 735 mmHg 90%
22:00 -4°C° 0 mm 3 m/s 735 mmHg 89%
23:00 -4°C° 0 mm 3 m/s 735 mmHg 87%

Poimâine, 5 Martie, Vineri

Timp Temperatura Precipitaţii Vânt Presiune Umiditate
00:00 -5°C° 0 mm 3 m/s 736 mmHg 87%
01:00 -5°C° 0 mm 3 m/s 736 mmHg 88%
02:00 -5°C° 0 mm 3 m/s 736 mmHg 88%
03:00 -6°C° 0 mm 3 m/s 736 mmHg 86%
04:00 -6°C° 0 mm 3 m/s 736 mmHg 84%
05:00 -6°C° 0 mm 3 m/s 737 mmHg 82%
06:00 -6°C° 0 mm 3 m/s 737 mmHg 80%
07:00 -6°C° 0 mm 3 m/s 737 mmHg 78%
08:00 -6°C° 0 mm 3 m/s 738 mmHg 75%
09:00 -5°C° 0 mm 4 m/s 738 mmHg 70%
10:00 -4°C° 0 mm 4 m/s 738 mmHg 65%
11:00 -4°C° 0 mm 5 m/s 739 mmHg 60%
12:00 -4°C° 0.1 mm 5 m/s 739 mmHg 55%
13:00 -3°C° 0.1 mm 6 m/s 740 mmHg 50%
14:00 -3°C° 0.1 mm 6 m/s 740 mmHg 46%
15:00 -3°C° 0 mm 6 m/s 740 mmHg 43%
16:00 -4°C° 0 mm 5 m/s 741 mmHg 41%
17:00 -3°C° 0 mm 4 m/s 741 mmHg 39%
18:00 -4°C° 0 mm 4 m/s 742 mmHg 48%
19:00 -4°C° 0 mm 4 m/s 742 mmHg 58%
20:00 -5°C° 0 mm 4 m/s 743 mmHg 67%
21:00 -5°C° 0.1 mm 4 m/s 743 mmHg 69%
22:00 -5°C° 0.1 mm 4 m/s 743 mmHg 72%
23:00 -5°C° 0.1 mm 4 m/s 744 mmHg 74%

6 Martie, Sâmbătă

Timp Temperatura Precipitaţii Vânt Presiune Umiditate
00:00 -5°C° 0 mm 3 m/s 744 mmHg 75%
01:00 -6°C° 0 mm 3 m/s 745 mmHg 76%
02:00 -6°C° 0 mm 3 m/s 745 mmHg 77%
03:00 -6°C° 0 mm 3 m/s 745 mmHg 76%
04:00 -7°C° 0 mm 3 m/s 745 mmHg 75%
05:00 -7°C° 0 mm 3 m/s 746 mmHg 75%
06:00 -6°C° 0 mm 2 m/s 746 mmHg 73%
07:00 -6°C° 0 mm 2 m/s 746 mmHg 71%
08:00 -6°C° 0 mm 2 m/s 747 mmHg 69%
09:00 -6°C° 0 mm 3 m/s 747 mmHg 64%
10:00 -4°C° 0 mm 4 m/s 747 mmHg 59%
11:00 -3°C° 0 mm 4 m/s 747 mmHg 54%
12:00 -4°C° 0 mm 5 m/s 747 mmHg 53%
13:00 -2°C° 0 mm 5 m/s 746 mmHg 51%
14:00 -2°C° 0 mm 6 m/s 746 mmHg 50%
15:00 -3°C° 0 mm 6 m/s 745 mmHg 51%
16:00 -3°C° 0 mm 6 m/s 745 mmHg 51%
17:00 -3°C° 0 mm 6 m/s 744 mmHg 52%
18:00 -3°C° 0 mm 6 m/s 744 mmHg 54%
19:00 -4°C° 0 mm 6 m/s 743 mmHg 56%
20:00 -4°C° 0 mm 7 m/s 742 mmHg 58%
21:00 -4°C° 0 mm 7 m/s 742 mmHg 62%
22:00 -5°C° 0 mm 8 m/s 741 mmHg 67%
23:00 -5°C° 0 mm 9 m/s 740 mmHg 71%

7 Martie, Duminică

Timp Temperatura Precipitaţii Vânt Presiune Umiditate
00:00 -5°C° 0.2 mm 9 m/s 739 mmHg 78%
01:00 -5°C° 0.2 mm 9 m/s 739 mmHg 86%
02:00 -5°C° 0.2 mm 9 m/s 738 mmHg 93%
03:00 -5°C° 0.2 mm 9 m/s 737 mmHg 92%
04:00 -5°C° 0.2 mm 10 m/s 736 mmHg 91%
05:00 -5°C° 0.2 mm 10 m/s 736 mmHg 90%
06:00 -5°C° 0.3 mm 10 m/s 735 mmHg 91%
07:00 -4°C° 0.3 mm 10 m/s 735 mmHg 92%
08:00 -4°C° 0.3 mm 10 m/s 735 mmHg 93%
09:00 -4°C° 0.3 mm 10 m/s 735 mmHg 93%
10:00 -4°C° 0.3 mm 10 m/s 735 mmHg 94%
11:00 -4°C° 0.3 mm 10 m/s 735 mmHg 94%
12:00 -4°C° 0.7 mm 9 m/s 735 mmHg 94%
13:00 -4°C° 0.7 mm 7 m/s 735 mmHg 94%
14:00 -4°C° 0.7 mm 6 m/s 735 mmHg 93%
15:00 -4°C° 0.2 mm 6 m/s 735 mmHg 88%
16:00 -4°C° 0.2 mm 6 m/s 735 mmHg 82%
17:00 -4°C° 0.2 mm 6 m/s 735 mmHg 77%
18:00 -5°C° 0 mm 5 m/s 736 mmHg 76%
19:00 -5°C° 0 mm 4 m/s 736 mmHg 75%
20:00 -7°C° 0 mm 4 m/s 736 mmHg 74%
21:00 -6°C° 0 mm 3 m/s 736 mmHg 74%
22:00 -6°C° 0 mm 3 m/s 737 mmHg 74%
23:00 -6°C° 0 mm 2 m/s 737 mmHg 74%

8 Martie, Luni

Timp Temperatura Precipitaţii Vânt Presiune Umiditate
00:00 -7°C° 0 mm 3 m/s 737 mmHg 74%
01:00 -7°C° 0 mm 3 m/s 737 mmHg 74%
02:00 -7°C° 0 mm 3 m/s 737 mmHg 74%
03:00 -8°C° 0 mm 4 m/s 737 mmHg 75%
04:00 -8°C° 0 mm 4 m/s 737 mmHg 75%
05:00 -8°C° 0 mm 4 m/s 737 mmHg 76%
06:00 -8°C° 0 mm 4 m/s 737 mmHg 79%
07:00 -8°C° 0 mm 4 m/s 738 mmHg 82%
08:00 -8°C° 0 mm 4 m/s 738 mmHg 86%
09:00 -7°C° 0 mm 4 m/s 739 mmHg 80%
10:00 -7°C° 0 mm 4 m/s 739 mmHg 75%
11:00 -7°C° 0 mm 4 m/s 740 mmHg 70%
12:00 -5°C° 0 mm 4 m/s 740 mmHg 68%
13:00 -5°C° 0 mm 4 m/s 740 mmHg 65%
14:00 -5°C° 0 mm 4 m/s 741 mmHg 63%
15:00 -5°C° 0 mm 4 m/s 741 mmHg 62%
16:00 -5°C° 0 mm 4 m/s 741 mmHg 62%
17:00 -7°C° 0 mm 4 m/s 742 mmHg 61%
18:00 -8°C° 0 mm 4 m/s 742 mmHg 64%
19:00 -7°C° 0 mm 3 m/s 743 mmHg 66%
20:00 -8°C° 0 mm 3 m/s 744 mmHg 69%
21:00 -8°C° 0 mm 3 m/s 744 mmHg 70%
22:00 -8°C° 0 mm 2 m/s 745 mmHg 71%
23:00 -8°C° 0 mm 2 m/s 746 mmHg 72%
Arată mai mult

Formular de consimțământ

Meteoprog și furnizorii noștri de servicii pot stoca și accesa date personale, precum cookies, identificatori de dispozitiv sau alte tehnologii similare pe dispozitivul dumneavoastră și procesa astfel de date pentru a personaliza conținutul și reclamele, dar și pentru a oferi caracteristici de social media și pentru a analiza traficul.

  • Stocarea și/sau accesarea informațiilor pe dispozitivul dumneavoastră

    Cookies, identificatori de dispozitiv sau alte informații pot fi stocate sau accesate pe dispozitiv în scopurile indicate mai sus.

  • Reclame și conținut personalizat, evaluarea reclamelor și a conținutului, informații despre audiențe și dezvoltarea produselor

    Reclamele și conținutul pot fi personalizate pe baza unui profil. Pot fi adăugate date suplimentare pentru a personaliza mai bine reclamele și conținutul. Performanța reclamelor și conținutului poate fi măsurată. Pot fi obținute informații despre utilizatorii care au văzut reclamele și conținutul. Aceste date pot fi utilizate pentru a dezvolta sau îmbunătăți experiența utilizatorilor, sistemele și software-ul.

Dând clic pe ‘Sunt de acord’, permiteți utilizarea cookie-urilor menționate, a identificatorilor de dispozitiv, balizelor web sau altor tehnologii similare. Setările pot fi modificate din browser-ul dispozitivului dumneavoastră.

În anumite scopuri, interesele legitime pot prima asupra consimțământului. Puteți citi mai multe informații în acest sens în Politica privind Confidențialitatea Datelor și Cookie.